[TLELIST] Archives

 

[list_settings.list_name] Current TLEs

June 19th 2011 PST

HST 1 20580U 90037B 11169.97942646 .00000698 00000-0 40095-4 0 7835 2 20580 028.4730 004.7412 0003546 140.6521 219.4325 15.01395870959925 ISS (ZARYA) 1 25544U 98067A 11170.41169007 .00040684 00000-0 45822-3 0 5642 2 25544 051.6423 149.5201 0011349 263.6593 233.1652 15.62060926721253 CXO 1 25867U 99040B 11171.58333333 -.00000667 00000-0 00000+0 0 6190 2 25867 069.3986 031.4648 8620345 276.7163 352.4513 00.37803401 7788 ____________________________________________________________________ These 2-Line ...Continue Reading

[list_settings.list_name] Current TLEs

June 18th 2011 PST

HST 1 20580U 90037B 11167.05457208 .00000742 00000-0 43483-4 0 7819 2 20580 028.4720 023.8497 0003427 111.2522 248.8269 15.01392892959487 ISS (ZARYA) 1 25544U 98067A 11169.24970980 .00031247 00000-0 35423-3 0 5585 2 25544 051.6414 155.3807 0011537 257.1233 181.1549 15.62022483721071 CXO 1 25867U 99040B 11168.95833333 -.00000725 00000-0 00000+0 0 6186 2 25867 069.3826 031.6177 8618674 276.6960 355.1726 00.37802451 7775 ____________________________________________________________________ These 2-Line ...Continue Reading

[list_settings.list_name] Current TLEs

June 17th 2011 PST

HST 1 20580U 90037B 11167.05457208 .00000742 00000-0 43483-4 0 7819 2 20580 028.4720 023.8497 0003427 111.2522 248.8269 15.01392892959487 ISS (ZARYA) 1 25544U 98067A 11168.16658693 -.00010918 00000-0 -10549-3 0 5507 2 25544 051.6451 160.8516 0013961 294.0364 164.9781 15.64382534720904 CXO 1 25867U 99040B 11168.95833333 -.00000725 00000-0 00000+0 0 6186 2 25867 069.3826 031.6177 8618674 276.6960 355.1726 00.37802451 7775 ____________________________________________________________________ These 2-Line ...Continue Reading

[list_settings.list_name] Current TLEs

June 16th 2011 PST

HST 1 20580U 90037B 11164.06324016 .00000944 00000-0 58779-4 0 7804 2 20580 028.4710 043.3904 0003276 078.9007 281.1900 15.01390413959035 ISS (ZARYA) 1 25544U 98067A 11166.32006815 .00079535 00000-0 70033-3 0 5373 2 25544 051.6404 170.2103 0012163 235.9591 252.3222 15.67954468720612 CXO 1 25867U 99040B 11166.29166667 -.00000843 00000-0 00000+0 0 6170 2 25867 069.3661 031.7791 8616657 276.6701 352.2323 00.37805872 7767 ____________________________________________________________________ These 2-Line ...Continue Reading

[list_settings.list_name] Current TLEs

June 15th 2011 PST

HST 1 20580U 90037B 11164.06324016 .00000944 00000-0 58779-4 0 7804 2 20580 028.4710 043.3904 0003276 078.9007 281.1900 15.01390413959035 ISS (ZARYA) 1 25544U 98067A 11166.32006815 .00079535 00000-0 70033-3 0 5373 2 25544 051.6404 170.2103 0012163 235.9591 252.3222 15.67954468720612 CXO 1 25867U 99040B 11166.29166667 -.00000843 00000-0 00000+0 0 6170 2 25867 069.3661 031.7791 8616657 276.6701 352.2323 00.37805872 7767 ____________________________________________________________________ These 2-Line ...Continue Reading

[list_settings.list_name] Current TLEs

June 14th 2011 PST

HST 1 20580U 90037B 11164.06324016 .00000944 00000-0 58779-4 0 7804 2 20580 028.4710 043.3904 0003276 078.9007 281.1900 15.01390413959035 ISS (ZARYA) 1 25544U 98067A 11165.23295444 .00009856 00000-0 92254-4 0 5313 2 25544 051.6414 175.7391 0011950 231.8912 236.0417 15.67908861720449 CXO 1 25867U 99040B 11166.29166667 -.00000843 00000-0 00000+0 0 6170 2 25867 069.3661 031.7791 8616657 276.6701 352.2323 00.37805872 7767 ____________________________________________________________________ These 2-Line ...Continue Reading

[list_settings.list_name] Current TLEs

June 13th 2011 PST

HST 1 20580U 90037B 11164.06324016 .00000944 00000-0 58779-4 0 7804 2 20580 028.4710 043.3904 0003276 078.9007 281.1900 15.01390413959035 ISS (ZARYA) 1 25544U 98067A 11164.39899976 .00016365 00000-0 14962-3 0 5254 2 25544 051.6424 179.9868 0012220 230.4488 207.1170 15.67904392720315 CXO 1 25867U 99040B 11163.66666667 -.00000748 00000-0 00000+0 0 6166 2 25867 069.3470 031.9643 8612570 276.6371 354.9670 00.37807104 7759 ____________________________________________________________________ These 2-Line ...Continue Reading

[list_settings.list_name] Current TLEs

June 12th 2011 PST

HST 1 20580U 90037B 11161.13837474 .00001005 00000-0 63419-4 0 7790 2 20580 028.4701 062.4957 0003033 046.6795 313.4132 15.01386059958599 ISS (ZARYA) 1 25544U 98067A 11163.33451389 .00018083 00000-0 12501-3 0 5200 2 25544 051.6456 185.4217 0001267 336.7275 199.6508 15.74613146720146 CXO 1 25867U 99040B 11163.66666667 -.00000748 00000-0 00000+0 0 6166 2 25867 069.3470 031.9643 8612570 276.6371 354.9670 00.37807104 7759 ____________________________________________________________________ These 2-Line ...Continue Reading

[list_settings.list_name] Current TLEs

June 11th 2011 PST

HST 1 20580U 90037B 11161.13837474 .00001005 00000-0 63419-4 0 7790 2 20580 028.4701 062.4957 0003033 046.6795 313.4132 15.01386059958599 ISS (ZARYA) 1 25544U 98067A 11162.38436343 .00016413 00000-0 11406-3 0 5148 2 25544 051.6472 190.3118 0000992 321.4933 225.2803 15.74575865719995 CXO 1 25867U 99040B 11163.66666667 -.00000748 00000-0 00000+0 0 6166 2 25867 069.3470 031.9643 8612570 276.6371 354.9670 00.37807104 7759 ____________________________________________________________________ These 2-Line ...Continue Reading

[list_settings.list_name] Current TLEs

June 10th 2011 PST

HST 1 20580U 90037B 11161.13837474 .00001005 00000-0 63419-4 0 7790 2 20580 028.4701 062.4957 0003033 046.6795 313.4132 15.01386059958599 ISS (ZARYA) 1 25544U 98067A 11161.36954861 .00023515 00000-0 16178-3 0 5079 2 25544 051.6445 195.5196 0001019 326.4356 224.0639 15.74527212719833 CXO 1 25867U 99040B 11161.04166667 -.00000443 00000-0 00000+0 0 6152 2 25867 069.3257 032.1265 8606870 276.6314 357.6378 00.37805092 7746 ____________________________________________________________________ These 2-Line ...Continue Reading
  • This mailing list is a public mailing list - anyone may join or leave, at any time.
  • This mailing list is announce-only.

International Space Station (ISS) / Hubble Space Telescope (HST) / Chandra X-Ray Observatory Orbital Data via EMAIL

Privacy Policy:

Private list